Volver al catálogo

SL-8 R/B

ActivoLEO
NORAD 7686·ROCKET BODY·🇷🇺 Russia

Lanzado Feb 28, 1975 desde Plesetsk Cosmodrome

Loading…

Próximos Pases (próximas 24 horas)

TLE

ActualizadoSource: Space-Track

Época: Sep 14, 2026, 09:48 UTC

1 07686U 75016J   26257.40880075  .00000057  00000-0  64929-3 0  9995
2 07686  73.9997  53.1618 0163926 157.9628 231.2454 12.21129260297131

Sigue SL-8 R/B en tiempo real con AllMySat

Download on the App Store